User: anonymous   Login
Location: Kitchener
(43.4500°N, 80.5000°W)
Time: 06:11:12
(UTC-04:00)
Language:

Cosmos 1939 Rocket - Orbit

View from above orbital plane
View from above orbital plane
View from above satellite
View from above satellite

Ground track
Ground track

The orbit data is extracted from the following two-line orbital elements,

1 19046U 88032B   17116.90721674 -.00000229 +00000-0 -12564-4 0  9990
2 19046 097.5338 165.3062 0038322 140.2025 220.2022 15.02187832564655
Epoch (UTC): 26 April 2017 21:46:23
Eccentricity: 0.0038322
inclination: 97.5338°
perigee height: 533 km
apogee height: 587 km
right ascension of ascending node: 165.3062°
argument of perigee: 140.2025°
revolutions per day: 15.02187832
mean anomaly at epoch: 220.2022°
orbit number at epoch: 56465

The dashed part of the orbit path shows where the satellite is in the earth's shadow,  

DLR